Regional Weather Roundup
Issued by NWS

Home | Current Version | Previous Version | Text Only | Print | Product List | Glossary Off
Versions: 1 2 3 4 5 6 7 8 9 10 11 12 13 14 15 16 17 18 19 20 21 22 23 24 25 26 27 28 29 30 31 32 33 34 35 36 37 38 39 40 41 42 43 44 45 46 47 48 49 50

927
ASUS45 KBOI 031710
RWRID

IDAHO REGIONAL WEATHER ROUNDUP
NATIONAL WEATHER SERVICE BOISE ID
1100 AM MDT TUE MAY 03 2016

NOTE: "FAIR" INDICATES FEW OR NO CLOUDS BELOW 12000 FEET
WITH NO SIGNIFICANT WEATHER AND/OR OBSTRUCTIONS TO VISIBILITY

IDZ012-014-031800-
SOUTHWEST IDAHO


CITY           SKY/WX    TMP DP  RH WIND       PRES   REMARKS
BOISE          SUNNY     68  35  29 CALM      30.16S
CALDWELL       SUNNY     68  40  35 E10       30.15F
MOUNTAIN HOME  SUNNY     67  38  34 E15       30.16F
$$

IDZ016-017-031800-
SOUTHCENTRAL IDAHO


CITY           SKY/WX    TMP DP  RH WIND       PRES   REMARKS
BURLEY         SUNNY     63  35  35 VRB3      30.22S
JEROME         SUNNY     63  41  44 E7        30.23R
TWIN FALLS     MOSUNNY   63  39  41 N6        30.22S
$$

IDZ019>023-031800-
SOUTHEAST IDAHO


CITY           SKY/WX    TMP DP  RH WIND       PRES   REMARKS
IDAHO FALLS    SUNNY     62  31  31 CALM      30.27S
POCATELLO      SUNNY     63  34  33 NE3       30.26S
REXBURG        SUNNY     59  29  31 W3        30.27S
$$

IDZ006-010-011-018-031-032-031800-
CENTRAL IDAHO MOUNTAINS


CITY           SKY/WX    TMP DP  RH WIND       PRES   REMARKS
MCCALL         SUNNY     57  38  48 CALM      30.21S
HAILEY         SUNNY     59  32  36 SE5       30.28S
STANLEY          N/A     53  28  38 N3        30.29F
SALMON         SUNNY     55  32  41 CALM      30.21F
CHALLIS        SUNNY     58  29  33 N3        30.24F
$$

IDZ002-004-006-007-026-031800-
NORTHERN IDAHO


CITY           SKY/WX    TMP DP  RH WIND       PRES   REMARKS
LEWISTON       SUNNY     68  47  46 NE8       30.08S
LOWELL           N/A     62  41  46 CALM      30.13F
COEUR D`ALENE  SUNNY     66  46  48 NE8       30.08F
MULLAN PASS    SUNNY     58  35  42 VRB3      30.24R
$$




USA.gov is the U.S. government's official web portal to all federal, state and local government web resources and services.